Tracking 31027 objects as of 19-Jul-2025
HD Live streaming from Space Station
objects crossing your sky now

STARLINK-1866

Track STARLINK-1866 now!
10-day predictions
STARLINK-1866 is classified as:


NORAD ID: 47152
Int'l Code: 2020-088AG
Perigee: 220.6 km
Apogee: 230.4 km
Inclination: 53.0 °
Period: 88.9 minutes
Semi major axis: 6596 km
RCS: Unknown
Launch date: November 25, 2020
Source: United States (US)
Launch site: AIR FORCE EASTERN TEST RANGE (AFETR)
Your satellite tracking list
LANDSAT 5
Track 1 satellite(s)




NASA's NSSDC Master Catalog

Two Line Element Set (TLE):
1 47152U 20088AG  25199.39551053  .01847293  11841-4  89462-3 0  9999
2 47152  53.0180 197.2769 0007435 331.0733 184.6852 16.20444341257836
Source of the keplerian elements: AFSPC